星链-3189 (STARLINK-3189 )

导读 | 豆包AI

STARLINK-3189是美国太空探索技术公司(SpaceX)星链(Starlink)星座中的一颗卫星,于2022年2月3日发射入轨,属于星链互联网卫星组网的一部分,旨在为全球提供低延迟、高速率的宽带互联网服务,是星链大规模部署进程中的一颗组网卫星,推动了全球卫星互联网基础设施的构建。

基本信息
目录编号:
51464
目录名称:
STARLINK-3189
国际标识:
2022-010J
轨道中心:
EARTH
卫星名称:
星链-3189
卫星全名:
星链-3189 (STARLINK-3189 )
卫星状态:
在轨 (已飞行1548 天)
发射日期:
2022-02-03 UTC
国别 :
美国 (US)
星等 :
--
轨道信息
数据来源 国际轨道数据 AOE轨道数据
星历时间 2026-04-30T19:48:58+0800
14小时前
查看轨道信息
2026-04-30T20:00:00+0800
14小时前
查看轨道信息
半长轴 6917.88km 6917.858km
偏心率 0.0001601 0.0001654
轨道倾角 53.220° 53.218°
近地点辐角 91.797° 81.827°
升交点赤经 46.571° 46.539°
平近点角 268.321° 319.913°
近地点 538.635km 538.576km
远地点 540.851km 540.866km
周期 95.438分钟 95.437分钟
每日圈数 15.088402 15.088474
详细信息
固有亮度:
5
最大亮度:
2.5
卫星平台:
Starlink v1.5
覆盖范围:
全球
运营商:
太空探索技术公司
运营商所在国:
美国
制造商(研发单位):
太空探索技术公司
制造商所在国:
美国
使用方式:
暂无
卫星简介
星链(Starlink)计划是由太空探索技术公司(SpaceX)提出的一个巨型低轨卫星互联网星座项目,计划在2019年至2024年间在太空搭建由约1.2万颗卫星组成的“星链”网络,其中1584颗将部署在地球上空550千米处的近地轨道,并从2020年开始工作。该卫星仍在工作。
2D轨道图
3D轨道图
轨道高度分析图
轨道倾角分析图
轨道综合分析图
查看轨道综合分析图